GW1710 Weather Reports


time (UTC)temp
C
wind
direction
speed
KPH
gust
KPH
rain 1hr
cm
rain 24hr
cm
rain mn
cm
humidity
%
barometer
mb
20260505101052 12 0 0.0 1.6 0.00 0.00 0.00 83 1009.9
20260505100552 12 0 0.0 1.6 0.00 0.00 0.00 83 1009.9
20260505100052 12 0 0.0 1.6 0.00 0.00 0.00 83 1009.9
20260505095551 12 300 0.0 1.6 0.00 0.00 0.00 83 1009.9
20260505095051 12 0 0.0 0.0 0.00 0.00 0.00 83 1009.9
20260505094550 12 0 0.0 1.6 0.00 0.00 0.00 82 1009.9
20260505094052 12 0 0.0 1.6 0.00 0.00 0.00 83 1009.8
20260505093550 12 0 0.0 1.6 0.00 0.00 0.00 83 1009.8
20260505093052 12 244 0.0 1.6 0.00 0.00 0.00 83 1009.9
20260505092552 12 0 0.0 1.6 0.00 0.00 0.00 83 1009.9
20260505092051 12 0 0.0 1.6 0.00 0.00 0.00 82 1009.8
20260505091611 12 0 0.0 1.6 0.00 0.00 0.00 83 1009.8
20260505091051 12 0 0.0 1.6 0.00 0.00 0.00 82 1009.7
20260505090549 12 0 0.0 1.6 0.00 0.00 0.00 82 1009.7
20260505090052 12 0 0.0 1.6 0.00 0.00 0.00 83 1009.8
20260505085552 11 0 0.0 1.6 0.00 0.00 0.00 84 1009.8
20260505085051 12 0 0.0 1.6 0.00 0.00 0.00 84 1009.8
20260505084552 12 0 0.0 1.6 0.00 0.00 0.00 83 1009.8
20260505084051 12 0 0.0 1.6 0.00 0.00 0.00 83 1009.9
20260505083550 12 0 0.0 1.6 0.00 0.00 0.00 83 1009.8
20260505083056 12 0 0.0 1.6 0.00 0.00 0.00 83 1009.7
20260505082550 12 0 0.0 1.6 0.00 0.00 0.00 83 1009.7
20260505082052 12 0 0.0 1.6 0.00 0.00 0.00 83 1009.7
20260505081602 12 0 0.0 0.0 0.00 0.00 0.00 82 1009.7
20260505081052 12 0 0.0 0.0 0.00 0.00 0.00 82 1009.7
20260505080552 12 0 0.0 1.6 0.00 0.00 0.00 81 1009.7
20260505080110 12 0 0.0 1.6 0.00 0.00 0.00 81 1009.7
20260505075551 12 0 0.0 1.6 0.00 0.00 0.00 81 1009.7
20260505075051 13 0 0.0 1.6 0.00 0.00 0.00 80 1009.6
20260505074553 13 0 0.0 1.6 0.00 0.00 0.00 79 1009.6
20260505074048 13 0 0.0 1.6 0.00 0.00 0.00 79 1009.6
20260505073548 13 0 0.0 1.6 0.00 0.00 0.00 79 1009.6
20260505073054 13 0 0.0 1.6 0.00 0.00 0.00 78 1009.5
20260505072549 13 0 0.0 1.6 0.00 0.00 0.00 78 1009.6
20260505072051 13 0 0.0 1.6 0.00 0.00 0.00 77 1009.4
20260505071557 14 223 0.0 1.6 0.00 0.00 0.00 76 1009.5
20260505071051 14 0 0.0 1.6 0.00 0.00 0.00 75 1009.5
20260505070551 15 0 0.0 1.6 0.00 0.00 0.00 74 1009.6
20260505070052 15 0 0.0 1.6 0.00 0.00 0.00 74 1009.6
20260505065551 15 0 0.0 1.6 0.00 0.00 0.00 72 1009.6
20260505065050 15 0 0.0 1.6 0.00 0.00 0.00 73 1009.6
20260505064551 15 0 0.0 1.6 0.00 0.00 0.00 72 1009.8
20260505064051 15 0 0.0 1.6 0.00 0.00 0.00 73 1009.8
20260505063551 15 0 0.0 1.6 0.00 0.00 0.00 72 1009.9
20260505063114 15 0 0.0 1.6 0.00 0.00 0.00 71 1009.9
20260505062551 15 0 0.0 1.6 0.00 0.00 0.00 71 1009.8
20260505062051 15 0 0.0 1.6 0.00 0.00 0.00 71 1009.9
20260505061618 15 0 0.0 0.0 0.00 0.00 0.00 70 1009.9
20260505061051 16 0 0.0 1.6 0.00 0.00 0.00 69 1009.8
20260505060554 16 0 0.0 1.6 0.00 0.00 0.00 69 1009.9
20260505055551 16 0 0.0 1.6 0.00 0.00 0.00 67 1009.8
20260505055051 16 0 0.0 1.6 0.00 0.00 0.00 67 1009.7
20260505054554 16 0 0.0 1.6 0.00 0.00 0.00 66 1009.8
20260505054050 16 0 0.0 1.6 0.00 0.00 0.00 66 1009.9
20260505053551 16 0 0.0 1.6 0.00 0.00 0.00 67 1009.8
20260505053059 16 0 0.0 1.6 0.00 0.00 0.00 66 1009.9
20260505052551 16 211 0.0 1.6 0.00 0.00 0.00 67 1009.8
20260505052051 16 0 0.0 1.6 0.00 0.00 0.00 67 1009.7
20260505051614 16 0 0.0 1.6 0.00 0.00 0.00 66 1009.7
20260505051052 16 0 0.0 1.6 0.00 0.00 0.00 66 1009.8
20260505050551 16 0 0.0 1.6 0.00 0.00 0.00 66 1009.9
20260505041559 16 243 0.0 3.2 0.00 0.00 0.00 64 1009.7
20260505041050 16 0 0.0 1.6 0.00 0.00 0.00 63 1009.7
20260505040550 17 172 0.0 1.6 0.00 0.00 0.00 63 1009.6
20260505035550 17 234 0.0 3.2 0.00 0.00 0.00 62 1009.6
20260505035051 17 0 0.0 3.2 0.00 0.00 0.00 62 1009.6
20260505034555 17 180 0.0 9.7 0.00 0.00 0.00 62 1009.3
20260505034050 17 187 0.0 9.7 0.00 0.00 0.00 61 1009.3
20260505033551 17 204 0.0 8.0 0.00 0.00 0.00 61 1009.4
20260505033101 17 217 0.0 8.0 0.00 0.00 0.00 60 1009.4
20260505032552 17 0 0.0 8.0 0.00 0.00 0.00 60 1009.3
20260505032051 17 0 0.0 8.0 0.00 0.00 0.00 59 1009.3
20260505031559 17 0 0.0 8.0 0.00 0.00 0.00 60 1009.2
20260505031050 17 0 0.0 6.4 0.00 0.00 0.00 59 1009.2
20260505030551 17 0 0.0 3.2 0.00 0.00 0.00 59 1009.3
20260505030100 17 0 0.0 3.2 0.00 0.00 0.00 59 1009.2
20260505025551 17 156 0.0 1.6 0.00 0.00 0.00 59 1009.3
20260505025051 17 171 0.0 1.6 0.00 0.00 0.00 58 1009.3
20260505024554 17 209 0.0 1.6 0.00 0.00 0.00 58 1009.5
20260505024050 17 0 0.0 3.2 0.00 0.00 0.00 57 1009.4
20260505023551 17 0 0.0 3.2 0.00 0.00 0.00 57 1009.5
20260505023057 18 205 0.0 3.2 0.00 0.00 0.00 57 1009.5
20260505022552 18 0 0.0 8.0 0.00 0.00 0.00 57 1009.5
20260505022051 18 0 0.0 9.7 0.00 0.00 0.00 57 1009.5
20260505021558 18 193 1.6 9.7 0.00 0.00 0.00 56 1009.5
20260505021050 18 0 0.0 1.6 0.00 0.00 0.00 56 1009.4
20260505020551 18 220 0.0 8.0 0.00 0.00 0.00 56 1009.4
20260505015551 18 190 0.0 8.0 0.00 0.00 0.00 54 1009.4
20260505015054 18 207 0.0 6.4 0.00 0.00 0.00 54 1009.6
20260505014556 18 0 0.0 6.4 0.00 0.00 0.00 54 1009.6
20260505014052 18 0 0.0 6.4 0.00 0.00 0.00 54 1009.6
20260505013550 18 0 0.0 3.2 0.00 0.00 0.00 53 1009.6
20260505013102 18 200 0.0 6.4 0.00 0.00 0.00 53 1009.6
20260505012550 18 0 0.0 8.0 0.00 0.00 0.00 52 1009.6
20260505012048 18 0 0.0 8.0 0.00 0.00 0.00 52 1009.4
20260505011555 18 0 0.0 6.4 0.00 0.00 0.00 52 1009.4
20260505011051 18 0 0.0 12.9 0.00 0.00 0.00 52 1009.3
20260505010551 18 212 0.0 17.7 0.00 0.00 0.00 51 1009.1
20260505010109 18 0 0.0 17.7 0.00 0.00 0.00 52 1009.2
20260505005551 18 0 0.0 3.2 0.00 0.00 0.00 52 1009.0
20260505005051 19 0 0.0 4.8 0.00 0.00 0.00 51 1009.1
20260505004551 19 0 0.0 9.7 0.00 0.00 0.00 51 1009.1
20260505004051 19 0 0.0 9.7 0.00 0.00 0.00 51 1009.1
20260505003552 19 213 0.0 3.2 0.00 0.00 0.00 50 1009.1
20260505003101 19 130 0.0 6.4 0.00 0.00 0.00 50 1009.1
20260505002551 20 141 0.0 6.4 0.00 0.00 0.00 50 1009.0
20260505002051 20 0 0.0 6.4 0.00 0.00 0.00 49 1009.0
20260505001555 20 0 0.0 6.4 0.00 0.00 0.00 49 1009.0
20260505001052 20 213 0.0 6.4 0.00 0.00 0.00 49 1009.0
20260505000554 20 0 0.0 9.7 0.00 0.00 0.00 49 1008.8
20260505000058 20 0 0.0 12.9 0.00 0.00 0.00 49 1008.8
20260504235551 20 0 0.0 12.9 0.00 0.00 0.00 48 1008.8
20260504235052 20 159 0.0 11.3 0.00 0.00 0.00 48 1008.8
20260504234552 20 182 0.0 11.3 0.00 0.00 0.00 47 1008.7
20260504234052 21 0 0.0 16.1 0.00 0.00 0.00 47 1008.8
20260504233549 21 208 0.0 16.1 0.00 0.00 0.00 47 1008.7
20260504233105 21 180 3.2 22.5 0.00 0.00 0.00 46 1008.7
20260504232554 21 0 0.0 25.7 0.00 0.00 0.00 46 1008.6
20260504232052 21 189 3.2 25.7 0.00 0.00 0.00 46 1008.6
20260504231558 21 158 0.0 11.3 0.00 0.00 0.00 46 1008.7
20260504231051 21 0 1.6 11.3 0.00 0.00 0.00 46 1008.6
20260504230548 21 0 0.0 9.7 0.00 0.00 0.00 46 1008.6
20260504230057 21 0 0.0 14.5 0.00 0.00 0.00 46 1008.6
20260504225549 21 219 0.0 16.1 0.00 0.00 0.00 46 1008.6
20260504225048 21 197 3.2 16.1 0.00 0.00 0.00 45 1008.7
20260504224551 21 192 1.6 17.7 0.00 0.00 0.00 45 1008.8
20260504224051 22 0 1.6 17.7 0.00 0.00 0.00 44 1008.7
20260504223551 22 208 3.2 14.5 0.00 0.00 0.00 44 1008.7
20260504223056 22 131 0.0 19.3 0.00 0.00 0.00 45 1008.7
20260504222552 22 0 0.0 25.7 0.00 0.00 0.00 44 1008.6
20260504222048 22 225 1.6 25.7 0.00 0.00 0.00 43 1008.8
20260504221555 22 0 1.6 24.1 0.00 0.00 0.00 43 1008.6
20260504221049 22 171 0.0 16.1 0.00 0.00 0.00 42 1008.6
20260504220552 22 238 1.6 16.1 0.00 0.00 0.00 42 1008.6
20260504220056 22 0 3.2 24.1 0.00 0.00 0.00 41 1008.7
20260504215549 22 224 1.6 24.1 0.00 0.00 0.00 41 1008.6
20260504215052 23 205 4.8 24.1 0.00 0.00 0.00 40 1008.8
20260504214556 23 219 3.2 17.7 0.00 0.00 0.00 41 1008.7
20260504214050 23 186 3.2 16.1 0.00 0.00 0.00 40 1008.7
20260504213551 23 242 0.0 16.1 0.00 0.00 0.00 41 1008.7
20260504213058 23 272 0.0 17.7 0.00 0.00 0.00 40 1008.7
20260504212548 23 262 1.6 17.7 0.00 0.00 0.00 40 1008.7
20260504212051 23 169 4.8 19.3 0.00 0.00 0.00 40 1008.7
20260504211552 23 267 1.6 19.3 0.00 0.00 0.00 41 1008.6
20260504211054 23 0 1.6 22.5 0.00 0.00 0.00 41 1008.7
20260504210549 23 0 6.4 22.5 0.00 0.00 0.00 42 1008.7
20260504210106 23 229 1.6 16.1 0.00 0.00 0.00 40 1008.7
20260504205550 23 0 3.2 17.7 0.00 0.00 0.00 39 1008.8
20260504205048 23 0 3.2 17.7 0.00 0.00 0.00 38 1008.8
20260504204602 23 0 0.0 11.3 0.00 0.00 0.00 41 1008.7
20260504204051 23 211 1.6 11.3 0.00 0.00 0.00 40 1008.9
20260504203548 23 269 0.0 20.9 0.00 0.00 0.00 38 1008.9
20260504203105 23 0 1.6 20.9 0.00 0.00 0.00 40 1008.9
20260504202551 23 208 4.8 22.5 0.00 0.00 0.00 40 1008.9
20260504202048 23 277 0.0 22.5 0.00 0.00 0.00 40 1009.1
20260504201557 23 0 1.6 20.9 0.00 0.00 0.00 40 1009.1
20260504201050 23 141 1.6 19.3 0.00 0.00 0.00 40 1009.1
20260504200551 23 0 3.2 19.3 0.00 0.00 0.00 41 1009.3
20260504200057 22 0 3.2 19.3 0.00 0.00 0.00 40 1009.4
20260504195550 23 233 3.2 14.5 0.00 0.00 0.00 41 1009.5
20260504195051 22 0 1.6 20.9 0.00 0.00 0.00 42 1009.5
20260504194600 23 259 0.0 20.9 0.00 0.00 0.00 41 1009.6
20260504194049 22 277 4.8 29.0 0.00 0.00 0.00 42 1009.7
20260504193551 22 252 1.6 30.6 0.00 0.00 0.00 44 1009.8
20260504193053 22 245 4.8 30.6 0.00 0.00 0.00 42 1009.7
20260504192551 22 278 1.6 24.1 0.00 0.00 0.00 41 1009.8
20260504192053 22 331 3.2 24.1 0.00 0.00 0.00 41 1010.0
20260504191551 22 250 3.2 22.5 0.00 0.00 0.00 43 1010.0
20260504191051 22 0 4.8 22.5 0.00 0.00 0.00 41 1010.0
20260504190551 22 201 3.2 24.1 0.00 0.00 0.00 40 1010.1
20260504190121 22 195 4.8 24.1 0.00 0.00 0.00 42 1010.1
20260504185551 22 0 1.6 27.4 0.00 0.00 0.00 41 1010.2
20260504185049 22 0 3.2 27.4 0.00 0.00 0.00 42 1010.2
20260504184552 22 285 3.2 22.5 0.00 0.00 0.00 43 1010.3
20260504184051 22 0 3.2 22.5 0.00 0.00 0.00 44 1010.4
20260504183551 22 180 1.6 20.9 0.00 0.00 0.00 41 1010.5
20260504183052 22 246 3.2 20.9 0.00 0.00 0.00 40 1010.6
20260504182548 22 294 1.6 14.5 0.00 0.00 0.00 41 1010.5
20260504182050 22 0 0.0 14.5 0.00 0.00 0.00 43 1010.7
20260504181550 22 227 1.6 14.5 0.00 0.00 0.00 44 1010.7
20260504181051 22 250 0.0 11.3 0.00 0.00 0.00 41 1010.8
20260504180552 22 290 1.6 11.3 0.00 0.00 0.00 42 1010.8
20260504180054 21 251 0.0 24.1 0.00 0.00 0.00 43 1010.9
20260504175554 21 215 1.6 24.1 0.00 0.00 0.00 40 1011.0
20260504175052 21 238 1.6 22.5 0.00 0.00 0.00 41 1011.1
20260504174555 21 252 1.6 22.5 0.00 0.00 0.00 41 1011.0
20260504174052 21 0 1.6 22.5 0.00 0.00 0.00 42 1011.2
20260504173551 21 215 1.6 19.3 0.00 0.00 0.00 45 1011.3
20260504173051 21 265 1.6 19.3 0.00 0.00 0.00 43 1011.3
20260504172550 21 269 1.6 19.3 0.00 0.00 0.00 42 1011.6
20260504172050 21 294 0.0 14.5 0.00 0.00 0.00 43 1011.6
20260504171553 21 0 1.6 14.5 0.00 0.00 0.00 42 1011.6
20260504171051 21 0 1.6 12.9 0.00 0.00 0.00 43 1011.7
20260504170550 21 0 0.0 24.1 0.00 0.00 0.00 43 1011.8
20260504151048 18 246 1.6 20.9 0.00 0.00 0.00 45 1013.3
20260504150551 18 207 1.6 17.7 0.00 0.00 0.00 44 1013.3
20260504141051 16 230 1.6 16.1 0.00 0.00 0.00 50 1013.6
20260504140551 16 190 0.0 3.2 0.00 0.00 0.00 53 1013.6
20260504130551 13 0 0.0 6.4 0.00 0.00 0.00 58 1013.8
20260504110553 3 0 0.0 0.0 0.00 0.00 0.00 88 1013.9